Location: Utrecht
(52.0907°N, 5.1214°E)
Time: 19:00:39
(UTC+02:00)

DIWATA 2B (PO-101) - Pass Details

Date: 01 July 2022
Orbit: 583 x 599 km, 98.0° (Epoch: 07 August)

Event Time Altitude Azimuth Distance (km) Brightness Sun altitude
Exits shadow 02:02:44 - 121° (ESE) 2,707 ? -14.7°
Reaches altitude 10° 02:04:58 10° 106° (ESE) 1,943 ? -14.6°
Maximum altitude 02:08:03 20° 59° (ENE) 1,405 ? -14.6°
Drops below altitude 10° 02:11:08 10° 12° (NNE) 1,953 ? -14.5°
Sets 02:13:45 0° 356° (N) 2,860 ? -14.5°
